Location: Chircca
(13.7944°S, 72.0608°W)
Time: 05:08:54
(UTC+00:00)

CZ-4 R/B - Pass Details

Date: 14 July 2020
Orbit: 533 x 596 km, 97.7° (Epoch: 14 August)

Event Time Altitude Azimuth Distance (km) Brightness Sun altitude
Exits shadow 00:36:25 17° 220° (SW) 1,501 3.7 -28.5°
Maximum altitude 00:38:14 22° 255° (WSW) 1,259 3.6 -28.9°
Drops below altitude 10° 00:41:21 10° 307° (NW) 1,841 4.8 -29.7°
Sets 00:43:48 0° 322° (NW) 2,717 5.6 -30.2°
